Location: Boiro
(42.6475°N, 8.8834°W)
Time: 18:48:47
(UTC+01:00)

Tiros 1 - Pass Details

Date: 12 December 2021
Orbit: 630 x 663 km, 48.4° (Epoch: 20 January)

Event Time Altitude Azimuth Distance (km) Brightness Sun altitude
Rises 00:28:04 0° 285° (WNW) 2,947 - -66.7°
Reaches altitude 10° 00:31:15 10° 262° (W) 2,040 - -67.0°
Maximum altitude 00:33:56 15° 227° (SW) 1,723 - -67.3°
Drops below altitude 10° 00:36:37 10° 192° (SSW) 2,046 - -67.6°
Sets 00:39:50 0° 170° (S) 2,959 - -67.9°
